Regional Weather Roundup
Issued by NWS Sioux Falls, SD

Home | Current Version | Previous Version | Graphics & Text | Print | Product List | Glossary On
Versions: 1 2 3 4 5 6 7 8 9 10 11 12 13 14 15 16 17 18 19 20 21 22 23 24 25 26 27 28 29 30 31 32 33 34 35 36 37 38 39 40 41 42 43 44 45 46 47 48 49 50
000
ASUS43 KFSD 010810
RWRFSD

WEATHER ROUNDUP FOR SE SOUTH DAKOTA/SW MINNESOTA/NW IOWA
NATIONAL WEATHER SERVICE SIOUX FALLS SD
300 AM CDT FRI AUG 01 2014

NOTE: "FAIR" INDICATES FEW OR NO CLOUDS BELOW 12,000 FEET WITH NO
SIGNIFICANT WEATHER AND OR OBSTRUCTIONS TO VISIBILITY.


SDZ038>040-050-052>070-010900-
SOUTHEAST SOUTH DAKOTA

CITY           SKY/WX    TMP DP  RH WIND       PRES   REMARKS
CHAMBERLAIN    CLEAR     59  56  88 CALM      30.07S
HURON          CLEAR     59  55  87 CALM      30.05S
MADISON        FAIR      55  55 100 NW5       30.08S
MITCHELL       CLEAR     61  59  93 E5        30.06F
SIOUX FALLS    CLEAR     58  57  97 CALM      30.07S
WINNER         FAIR      66  61  84 S10       30.07F
YANKTON        CLEAR     57  55  94 CALM      30.07S
$$

MNZ071-072-080-081-089-090-097-098-010900-
SOUTHWEST MINNESOTA

CITY           SKY/WX    TMP DP  RH WIND       PRES   REMARKS
FAIRMONT       CLEAR     61  54  77 CALM      30.06S
JACKSON        CLEAR     59  55  88 SW3       30.07S
LUVERNE        FOG       55  52  88 CALM      30.08R VSB 1/2
MARSHALL       CLEAR     59  54  82 W5        30.04S
MONTEVIDEO     CLEAR     63  55  77 NW6       30.05S
PIPESTONE      CLEAR     59  55  88 CALM      30.08S
REDWOOD FALLS  CLEAR     61  56  83 CALM      30.04S
TRACY          CLEAR     62  57  82 SW5       30.06S
WINDOM         CLEAR     55  54  94 CALM      30.07S
WORTHINGTON    CLEAR     59  55  88 S3        30.08S
$$

IAZ001>003-012>014-020>022-031-032-NEZ013-014-SDZ071-010900-
NORTHWEST IOWA

CITY           SKY/WX    TMP DP  RH WIND       PRES   REMARKS
CHEROKEE       CLOUDY    57  57 100 CALM      30.08S
DENISON        PTCLDY    59  59 100 CALM      30.06F FOG
ESTHERVILLE    CLEAR     58  56  93 SW3       30.06S
LE MARS        CLEAR     55  55 100 CALM      30.08S
ORANGE CITY    CLEAR     61  57  88 CALM      30.08S
SHELDON        CLEAR     55  54  94 CALM      30.07S
SIOUX CITY     CLEAR     60  58  92 E3        30.06F
SPENCER        CLEAR     56  54  93 S5        30.07S
STORM LAKE     MOCLDY    59  59 100 SW6       30.09S
$$

ABBREVIATIONS USED IN REMARKS
   TC - TEMPERATURE IN CELSIUS
  WCI - WIND CHILL INDEX
   HX - HEAT INDEX
  VSB - VISIBILITY




USA.gov is the U.S. government's official web portal to all federal, state and local government web resources and services.